Temperature
15 15 15 15 15 15 15 15 15 15 15 15 15 15 15 15 15 15 15 15 15 15 15 15 15 15 15 15 15 15 15 15 15 15 15 15 15 15 15 15 15 15 15
15 15 15 15 15 15 15 15 15 15 15 15 15 15 15 15 15 14 14 14 14 15 14 14 14 14 15 15 15 15 15 15 15 15 14 14 14 14 14 14 15 15 15
14 14 15 15 15 14 14 14 14 14 14 14 15 15 15 15 14 14 14 14 14 14 14 14 14 14 14 14 14 14 14 14 14 14 14 14 14 14 14 14 14 14 14
14 14 14 14 14 14 14 14 14 14 14 14 14 14 14 14 14 14 14 14 14 14 14 14 14 14 14 14 14 14 14 14 14 14 14 14 14 14 14 14 14 14 14
14 14 14 14 14 14 14 14 14 14 14 14 14 14 14 14 14 14 14 14 14 14 14 14 14 14 14 14 14 14 13 13 13 13 13 13 14 14 14 14 13 13 13
13 14 14 14 14 14 14 14 14 14 14 14 14 14 14 14 14 14 14 14 14 14 14 14 14 14 14 14 13 13 13 13 13 13 13 13 13 13 14 13 13 13 13
13 14 14 14 14 13 13 13 13 14 14 13 13 13 13 13 14 13 14 14 14 14 14 14 14 13 13 13 13 13 13 12 12 12 13 13 13 13 13 13 13 13 13
13 13 13 13 13 13 13 13 13 13 13 13 13 13 13 13 13 13 13 13 13 13 13 13 13 13 13 13 13 13 12 12 12 12 12 12 13 13 13 13 13 13 13
13 13 13 13 13 13 13 13 13 13 13 13 13 13 13 13 13 13 13 13 13 13 13 13 13 13 13 13 13 12 12 12 12 12 12 12 12 12 13 13 13 13 13
12 13 13 13 13 12 12 12 12 12 12 12 13 13 13 13 13 12 13 13 13 13 13 12 12 12 12 12 12 12 12 11 11 11 11 12 12 12 12 12 12 12 12
12 12 12 12 12 12 12 12 12 12 12 12 12 12 12 12 12 12 12 12 12 12 12 12 12 12 12 12 12 12 11 11 11 11 11 11 11 11 12 12 12 12 12
12 12 12 12 12 12 12 12 12 12 12 12 12 12 12 12 12 12 12 12 12 12 12 12 11 11 11 11 11 11 11 11 11 11 11 11 11 11 11 11 11 11 11
11 11 11 11 11 11 12 12 11 11 11 11 12 12 12 12 12 12 12 11 11 12 12 11 11 11 11 11 11 11 11 11 10 10 10 10 10 10 11 11 11 11 11
11 11 11 11 11 11 11 11 11 11 11 11 11 11 11 11 11 11 11 11 11 11 11 11 11 10 10 10 10 10 10 10 10 10 10 10 10 10 10 10 10 10 10
11 11 11 11 11 11 11 11 11 11 11 11 11 11 11 11 11 11 11 11 11 11 10 10 10 10 10 10 10 10 10 10 10 10 10 10 10 10 10 10 10 9 10
10 11 11 11 11 10 10 10 10 10 10 10 10 10 10 10 10 10 10 10 10 10 10 10 10 10 9 9 9 9 9 9 9 9 9 9 9 9 9 9 9 9 9
10 10 10 10 10 10 10 10 10 10 10 10 10 10 10 10 10 10 10 10 10 10 10 9 9 9 9 9 9 9 9 9 9 9 9 9 9 9 9 9 9 9 9
10 10 10 9 9 9 9 9 9 9 9 9 9 9 9 9 9 9 9 9 9 9 9 9 9 9 9 8 8 8 8 9 9 9 9 9 9 8 8 8 8 8 8
9 9 9 9 9 9 9 9 9 9 9 9 9 9 9 9 9 9 9 9 9 9 9 9 9 8 8 8 8 8 8 8 8 8 8 8 8 8 8 8 8 8 8
9 9 9 9 8 8 8 8 8 8 8 8 8 8 8 8 8 8 8 8 8 8 8 8 8 8 8 8 8 7 8 8 8 8 8 8 8 8 7 7 7 7 7
9 8 8 8 8 8 8 8 8 8 8 8 8 8 8 8 8 8 8 8 8 8 8 8 8 7 7 7 7 7 7 7 7 7 7 7 7 7 7 7 7 7 7
8 8 8 8 8 7 7 7 7 7 7 7 7 7 7 7 7 7 7 8 7 7 7 7 7 7 7 7 7 6 6 6 7 7 7 7 7 7 7 7 7 7 6
8 8 8 8 7 7 7 7 7 7 7 7 7 7 7 7 7 7 7 7 7 7 7 7 7 7 7 6 6 6 6 6 6 6 6 6 6 6 6 6 6 6 6
8 7 7 7 7 7 7 7 7 6 6 6 6 6 6 6 6 6 6 6 6 6 6 6 6 6 6 6 6 6 6 6 6 5 5 6 5 5 5 5 5 5 5
7 7 7 7 7 7 6 6 6 6 6 6 6 6 6 6 6 6 6 6 6 6 6 6 6 6 6 6 6 6 5 5 5 5 4 5 5 5 5 5 5 5 5
7 7 6 6 6 6 6 6 6 6 6 5 5 5 5 5 5 5 5 5 5 5 5 5 6 5 5 5 5 5 5 5 4 4 4 4 4 4 4 4 4 4 4
Wind_Speed
7 10 10 9 10 10 10 11 11 11 11 11 11 11 11 11 11 10 10 11 11 12 12 12 12 12 12 13 13 13 12 13 13 12 13 12 12 13 13 13 13 12 14
9 12 11 10 10 10 10 10 11 11 11 11 11 11 11 11 11 10 10 10 11 11 11 11 11 11 12 12 12 12 11 11 11 11 11 11 11 12 12 12 12 11 13
10 12 11 10 10 10 11 10 10 10 10 10 10 10 10 11 11 10 9 10 10 10 11 11 11 11 11 11 11 11 10 9 8 9 9 10 10 11 11 12 11 11 11
10 12 11 10 10 10 10 10 10 10 9 9 9 9 9 10 10 10 10 9 9 10 11 11 11 11 11 10 10 10 9 8 8 8 8 9 9 10 11 11 10 10 10
10 12 11 10 10 10 10 10 10 10 9 9 9 9 9 9 9 9 10 10 10 10 10 10 10 10 10 9 9 8 8 7 7 7 9 10 9 10 10 10 10 9 9
9 12 11 10 9 9 9 9 9 9 9 9 9 9 9 9 9 9 9 9 9 9 9 9 9 9 9 8 8 8 7 7 7 7 9 11 10 10 9 8 8 9 9
8 10 11 10 9 9 9 9 9 9 9 9 9 9 9 9 8 8 8 8 8 8 8 8 8 8 8 8 8 8 7 7 7 8 10 11 10 10 9 8 8 8 8
8 9 10 9 9 8 8 8 8 8 8 8 8 8 8 8 8 7 8 7 8 8 7 7 7 8 7 7 7 7 6 6 6 7 9 10 10 9 9 9 9 8 8
8 8 7 7 7 8 7 7 7 7 7 7 7 7 7 7 6 7 7 7 7 8 8 7 7 7 7 6 6 6 6 6 6 7 8 8 8 8 8 8 8 9 10
6 5 6 6 6 6 6 6 7 7 7 7 7 7 6 6 6 6 6 6 7 7 7 6 6 6 6 6 6 5 5 6 6 7 7 7 7 6 7 7 8 8 9
5 4 4 5 5 5 5 5 6 6 6 6 6 6 5 5 5 5 5 5 6 6 6 6 6 6 6 6 6 5 5 5 6 7 7 7 6 6 6 6 6 7 7
4 3 3 3 4 4 4 4 4 4 4 4 4 4 4 4 4 4 5 5 4 5 6 6 6 5 5 4 5 5 5 6 6 7 7 7 6 6 6 6 6 6 6
3 3 3 3 3 3 3 3 3 3 3 3 4 4 4 4 3 4 4 4 4 4 4 5 4 4 3 4 4 4 5 5 6 7 7 6 5 6 5 5 5 5 5
3 2 3 3 3 3 3 2 2 2 2 3 3 3 3 3 3 3 3 3 3 3 3 3 2 3 3 4 4 4 4 4 5 6 6 6 4 5 5 4 5 5 4
3 3 2 2 2 2 2 2 2 2 3 3 3 3 3 3 2 3 3 3 3 3 3 2 3 3 3 3 3 3 3 4 4 5 5 6 5 5 5 4 4 4 4
3 3 3 3 2 2 2 1 2 2 2 3 2 2 3 3 3 2 2 2 2 2 2 2 2 2 2 2 2 3 3 3 3 3 4 4 5 4 4 4 4 4 3
3 3 3 3 2 2 2 1 2 2 2 2 2 2 2 2 2 2 2 2 2 2 3 3 2 3 2 1 1 2 2 2 3 3 3 3 2 2 2 3 3 3 3
3 3 3 2 3 2 2 2 2 2 2 2 2 2 2 2 2 2 2 1 1 2 2 1 1 1 1 1 1 1 1 1 1 2 2 2 3 2 1 1 2 2 3
3 3 3 3 3 2 2 2 2 3 2 2 2 2 2 2 2 2 2 1 1 2 1 1 1 1 0 0 0 1 0 0 0 1 2 2 2 2 1 1 1 2 2
4 3 3 3 3 2 2 1 1 2 2 2 2 2 2 1 1 2 2 1 2 1 0 1 1 1 0 0 1 1 1 1 1 1 1 2 2 2 2 1 1 1 2
4 3 4 4 3 3 2 2 2 2 1 1 2 2 1 1 2 2 1 1 1 1 1 1 1 1 1 1 1 1 2 2 1 1 1 1 1 1 1 1 1 1 1
4 4 4 4 4 3 3 2 2 2 2 2 2 2 2 2 2 2 2 1 1 1 1 1 1 1 0 0 1 0 1 2 1 1 0 1 0 0 0 1 1 1 2
3 4 4 5 4 3 3 2 2 1 1 1 2 2 2 2 2 2 2 1 1 1 1 1 1 1 1 1 1 2 1 1 2 1 1 1 1 1 1 1 1 2 2
4 3 3 3 4 3 4 4 4 3 2 2 2 2 2 2 2 2 2 1 2 1 1 2 2 1 2 2 1 1 1 1 0 2 2 2 1 2 2 2 2 3 3
3 3 3 4 4 4 4 4 4 3 2 2 2 2 2 2 2 2 2 2 1 1 2 2 2 1 1 2 1 1 1 1 1 1 3 2 2 3 2 2 2 3 3
3 3 3 4 4 4 4 4 5 5 4 3 3 3 3 2 2 2 2 2 2 2 2 2 3 3 2 2 1 1 1 1 1 1 2 3 3 3 3 2 2 2 2
Wind_Direction
105 105 104 95 91 87 84 85 84 82 80 78 80 79 75 72 72 76 78 78 77 77 77 76 73 71 70 69 67 67 67 68 69 70 71 73 74 75 71 70 71 69 72
110 111 105 98 94 90 87 85 85 85 81 80 81 80 76 73 71 72 77 79 80 78 78 77 74 73 73 70 68 68 66 65 67 68 71 73 77 76 72 72 73 73 74
108 112 106 99 96 91 87 84 83 85 84 82 81 80 79 78 73 68 72 79 79 77 76 76 74 72 72 71 70 69 66 64 64 66 72 76 79 79 77 78 76 75 74
108 110 108 102 97 92 90 86 82 81 83 85 83 81 81 80 75 70 69 74 78 77 77 77 75 73 72 69 69 67 65 61 60 61 65 72 77 79 80 79 79 79 77
101 106 109 107 101 97 92 89 86 81 77 81 84 83 81 80 78 76 72 70 72 75 78 79 77 74 72 70 69 66 59 55 59 55 61 69 73 79 78 77 76 77 75
97 103 111 109 105 102 96 92 88 82 76 76 79 81 82 82 81 81 78 75 72 74 78 79 78 76 73 69 63 57 49 48 49 51 65 69 72 77 75 75 78 78 75
96 100 112 110 107 105 100 94 90 84 79 76 76 76 80 81 82 81 80 80 78 80 83 83 79 76 74 69 61 51 40 43 48 58 67 70 73 74 71 72 78 80 80
94 97 109 111 109 105 101 98 94 89 84 81 78 74 74 76 81 82 80 79 80 87 88 86 84 78 74 71 65 51 34 33 47 60 70 73 76 73 72 73 73 75 79
85 92 100 104 105 103 101 100 97 94 88 82 81 78 74 72 76 79 81 79 79 86 88 87 85 81 76 72 64 54 38 28 41 59 73 76 78 73 73 74 76 75 75
85 82 95 99 99 98 100 105 101 100 93 85 82 80 77 74 72 78 79 79 79 83 89 91 89 85 79 73 62 48 30 29 43 54 72 78 78 74 77 81 80 77 75
103 96 85 96 96 97 105 107 103 106 102 95 91 86 76 73 75 78 81 81 82 83 89 89 94 87 78 70 56 41 38 44 42 54 71 87 81 77 81 80 78 76 75
124 115 102 92 102 103 104 106 110 107 112 108 103 93 82 70 77 83 86 84 80 85 89 85 87 84 74 65 47 37 43 37 41 54 61 81 77 74 80 79 76 76 76
124 113 111 98 102 105 102 110 113 115 115 112 106 101 92 84 82 86 89 81 73 73 79 84 86 82 71 68 55 48 42 44 54 53 54 63 69 70 74 81 78 73 71
132 116 104 96 97 101 104 105 106 104 101 86 95 102 92 81 78 79 86 90 84 76 75 78 78 77 71 65 68 60 47 49 62 63 56 55 66 63 68 77 79 76 72
140 134 117 115 102 99 102 108 100 100 99 89 88 95 93 94 98 84 74 83 80 76 75 68 62 66 66 56 58 59 50 53 59 71 64 49 50 59 56 66 74 74 68
148 141 132 136 119 112 100 103 113 109 103 102 92 87 97 94 97 99 87 78 75 87 83 75 73 71 64 69 56 50 53 50 60 75 83 64 43 46 50 53 61 65 61
152 135 134 140 127 132 132 130 126 130 121 114 109 112 106 101 106 104 109 98 74 88 91 89 80 70 61 73 67 44 56 49 53 67 88 88 70 48 42 39 44 50 44
147 143 149 143 141 150 150 142 128 121 123 117 109 124 119 109 110 97 112 115 87 85 84 103 107 80 35 17 15 9 46 53 41 68 83 99 94 84 48 21 23 20 17
155 154 157 150 150 158 148 132 129 124 121 115 111 110 118 115 112 105 119 112 114 95 105 122 95 118 86 2 334 320 327 141 231 97 99 106 101 95 93 27 9 355 350
151 149 154 150 149 150 137 110 122 127 114 108 111 113 111 116 124 111 114 113 117 132 151 138 113 90 123 261 328 337 300 263 175 143 119 105 114 119 105 51 14 334 327
148 154 162 158 161 160 163 163 168 169 164 167 133 140 135 126 121 112 121 119 126 165 187 167 141 128 17 15 30 338 309 282 169 154 108 96 109 117 84 46 22 338 292
159 167 177 173 176 175 177 179 182 177 186 185 152 151 165 154 133 133 132 157 170 162 172 160 151 165 295 97 108 94 313 314 309 264 184 180 152 71 2 335 328 333 321
165 179 189 182 182 180 161 160 160 139 142 177 192 191 162 158 148 142 149 156 161 163 198 191 189 181 202 231 153 141 161 238 303 278 257 237 232 280 287 287 285 277 278
175 178 185 183 182 184 172 173 172 181 203 223 204 202 183 162 155 153 158 169 174 174 194 208 194 210 179 205 237 223 204 182 180 295 288 265 279 288 284 300 293 275 260
169 178 188 185 190 190 184 184 182 188 202 205 193 193 206 177 161 167 173 174 188 181 184 204 194 205 202 195 202 221 248 285 239 228 268 277 293 278 274 276 265 263 256
168 181 192 192 196 192 186 186 188 191 187 191 204 206 208 208 200 186 194 199 200 191 190 202 201 200 212 211 218 218 203 208 239 246 263 266 274 281 283 275 258 266 264
Height
1521 1521 1522 1523 1524 1524 1525 1526 1526 1527 1528 1528 1528 1529 1529 1530 1530 1530 1530 1530 1530 1531 1531 1531 1532 1532 1532 1532 1532 1533 1533 1534 1534 1534 1535 1535 1535 1535 1536 1536 1536 1536 1536
1521 1521 1522 1523 1524 1525 1526 1526 1527 1528 1528 1529 1529 1529 1530 1530 1531 1531 1531 1531 1531 1531 1532 1532 1532 1533 1533 1533 1533 1534 1534 1534 1535 1535 1536 1536 1536 1537 1537 1537 1537 1537 1537
1520 1521 1522 1523 1524 1525 1526 1527 1527 1528 1529 1529 1530 1530 1530 1531 1531 1531 1532 1532 1532 1532 1532 1532 1533 1533 1533 1534 1534 1534 1535 1535 1536 1536 1537 1537 1537 1537 1538 1538 1538 1538 1539
1521 1521 1522 1523 1525 1526 1526 1527 1528 1528 1529 1529 1530 1530 1531 1531 1531 1532 1532 1532 1532 1533 1533 1533 1533 1533 1534 1534 1534 1535 1536 1536 1536 1537 1537 1537 1538 1538 1538 1539 1539 1539 1539
1521 1521 1523 1524 1525 1526 1527 1527 1528 1528 1529 1529 1530 1530 1531 1531 1532 1532 1532 1532 1532 1533 1533 1533 1533 1534 1534 1534 1535 1535 1536 1537 1537 1537 1538 1538 1538 1538 1539 1539 1539 1539 1540
1521 1522 1523 1524 1525 1526 1527 1528 1528 1529 1529 1530 1530 1531 1531 1531 1532 1532 1532 1532 1533 1533 1533 1533 1533 1534 1534 1535 1535 1536 1537 1537 1537 1537 1538 1538 1538 1539 1539 1539 1539 1539 1540
1521 1522 1523 1524 1525 1526 1527 1527 1528 1529 1529 1530 1530 1530 1531 1531 1532 1532 1532 1532 1532 1533 1533 1533 1534 1534 1534 1535 1535 1536 1537 1537 1538 1538 1538 1538 1538 1539 1539 1539 1539 1539 1540
1521 1522 1523 1524 1525 1525 1526 1527 1528 1528 1529 1529 1530 1530 1531 1531 1531 1532 1532 1532 1532 1532 1533 1533 1534 1534 1534 1534 1535 1536 1536 1537 1537 1538 1538 1538 1538 1539 1539 1539 1539 1539 1539
1521 1521 1522 1523 1524 1525 1526 1526 1527 1528 1529 1529 1529 1530 1530 1531 1531 1531 1531 1532 1532 1532 1532 1533 1533 1533 1534 1534 1535 1535 1536 1537 1537 1537 1538 1538 1538 1538 1539 1539 1539 1539 1539
1520 1521 1522 1522 1523 1524 1525 1526 1527 1527 1528 1529 1529 1529 1530 1530 1530 1531 1531 1531 1531 1531 1532 1532 1533 1533 1533 1534 1534 1535 1536 1536 1536 1537 1537 1537 1538 1538 1538 1538 1538 1538 1538
1520 1520 1521 1521 1522 1523 1524 1525 1526 1526 1527 1528 1528 1528 1529 1529 1530 1530 1530 1531 1531 1531 1531 1532 1532 1533 1533 1533 1534 1534 1535 1535 1536 1536 1536 1537 1537 1537 1537 1537 1538 1538 1537
1518 1519 1520 1520 1521 1522 1523 1523 1524 1525 1526 1527 1527 1527 1528 1528 1529 1529 1529 1530 1530 1530 1531 1531 1531 1532 1532 1533 1533 1533 1534 1534 1535 1535 1535 1536 1536 1536 1536 1536 1536 1537 1537
1517 1518 1519 1519 1520 1520 1521 1522 1523 1524 1524 1525 1526 1526 1527 1527 1528 1528 1528 1529 1529 1529 1530 1530 1530 1531 1531 1532 1532 1532 1533 1533 1534 1534 1534 1535 1535 1535 1535 1535 1535 1535 1535
1515 1516 1517 1517 1518 1519 1520 1520 1521 1522 1523 1524 1524 1525 1525 1526 1526 1527 1527 1528 1528 1528 1529 1529 1529 1530 1530 1531 1531 1531 1532 1532 1532 1533 1533 1533 1534 1534 1534 1533 1533 1534 1534
1513 1514 1515 1515 1516 1517 1518 1518 1519 1520 1521 1522 1523 1523 1524 1524 1525 1525 1526 1526 1527 1527 1527 1528 1528 1528 1529 1530 1530 1530 1531 1531 1531 1531 1531 1532 1532 1532 1532 1532 1532 1532 1533
1511 1511 1512 1513 1514 1515 1515 1516 1517 1518 1519 1520 1521 1521 1522 1523 1523 1524 1524 1525 1525 1526 1526 1527 1527 1527 1527 1528 1528 1529 1529 1530 1530 1530 1530 1530 1530 1531 1531 1531 1531 1531 1531
1509 1509 1510 1511 1511 1512 1513 1514 1515 1516 1517 1518 1518 1520 1520 1521 1522 1522 1523 1523 1524 1524 1525 1525 1525 1526 1526 1526 1527 1527 1528 1528 1528 1528 1528 1528 1528 1529 1529 1529 1529 1530 1530
1506 1507 1507 1508 1509 1510 1511 1512 1513 1514 1515 1515 1516 1517 1518 1519 1520 1520 1521 1521 1522 1523 1523 1523 1523 1524 1524 1525 1525 1525 1526 1526 1526 1526 1526 1526 1527 1527 1527 1527 1527 1528 1528
1503 1504 1505 1506 1506 1507 1508 1509 1510 1511 1512 1513 1514 1515 1515 1516 1517 1518 1518 1519 1520 1521 1521 1521 1521 1522 1523 1523 1523 1524 1524 1524 1524 1524 1524 1525 1525 1525 1525 1525 1525 1526 1526
1501 1502 1503 1503 1504 1505 1506 1506 1507 1508 1509 1510 1511 1512 1513 1514 1515 1515 1516 1517 1517 1518 1518 1519 1519 1520 1521 1521 1521 1522 1522 1522 1522 1522 1523 1523 1523 1523 1523 1523 1523 1523 1523
1498 1499 1500 1500 1501 1502 1502 1503 1504 1505 1506 1507 1508 1509 1510 1511 1512 1512 1513 1514 1515 1515 1516 1516 1517 1518 1518 1519 1519 1520 1520 1520 1520 1521 1521 1521 1521 1521 1521 1521 1521 1521 1521
1494 1495 1497 1497 1498 1499 1500 1501 1501 1502 1503 1504 1505 1506 1507 1508 1509 1510 1510 1511 1512 1512 1513 1513 1514 1515 1516 1517 1517 1517 1518 1519 1518 1519 1519 1519 1519 1519 1519 1518 1518 1518 1518
1491 1492 1493 1494 1495 1496 1497 1498 1499 1500 1500 1501 1502 1503 1504 1505 1506 1506 1507 1508 1508 1509 1510 1510 1511 1512 1513 1514 1515 1516 1516 1516 1516 1516 1516 1516 1516 1516 1516 1516 1515 1515 1515
1488 1489 1490 1491 1492 1493 1494 1494 1495 1495 1496 1497 1499 1500 1501 1502 1502 1503 1504 1505 1505 1506 1507 1508 1508 1509 1510 1511 1512 1513 1514 1514 1514 1513 1514 1514 1514 1514 1513 1513 1512 1512 1511
1485 1486 1486 1487 1488 1489 1490 1491 1491 1492 1493 1495 1496 1497 1497 1498 1499 1499 1500 1501 1502 1502 1503 1504 1505 1506 1507 1507 1508 1509 1510 1511 1511 1511 1509 1510 1510 1511 1510 1510 1509 1509 1508
1482 1483 1483 1484 1484 1485 1486 1487 1488 1488 1489 1490 1492 1492 1493 1494 1495 1495 1496 1497 1498 1499 1500 1501 1501 1502 1503 1504 1505 1506 1506 1507 1507 1507 1506 1506 1506 1506 1507 1506 1506 1505 1505